Weather History for KBFD - December, 2013

Change the Weather History Date:

Saturday, December 14, 2013

  Actual Average Record
Temperature  
Mean Temperature 22 °F 26 °F  
Max Temperature 27 °F 33 °F 54 °F (1975)
Min Temperature 17 °F 19 °F -11 °F (2005)
Degree Days  
Heating Degree Days 43 34  
Month to date heating degree days 542 448  
Since 1 July heating degree days 2330 2283  
Cooling Degree Days 0 0  
Month to date cooling degree days 0 0  
Year to date cooling degree days 334 193  
Moisture  
Dew Point 17 °F    
Average Humidity 81    
Maximum Humidity 88    
Minimum Humidity 74    
Precipitation  
Precipitation 0.20 in 0.11 in 1.39 in (1977)
Month to date precipitation 0.59 1.64  
Year to date precipitation 32.62 42.70  
Sea Level Pressure  
Sea Level Pressure 30.02 in    
Wind  
Wind Speed 11 mph (SE)    
Max Wind Speed 22 mph    
Max Gust Speed 29 mph    
Visibility 2 miles    
Events Fog , Snow    
T = Trace of Precipitation, MM = Missing Value Source: NWS Daily Summary

Daily Weather History Graph

Daily Weather History Graph

Search for Another Location

Airport or City:

Trip Planner

Search our weather history database for the weather conditions in past years. The results will help you decide how hot, cold, wet, or windy it might be!

Date:

Astronomy

Dec. 14, 2013 Rise Set
Actual Time 7:34 AM EST 4:44 PM EST
Civil Twilight 7:02 AM EST 5:15 PM EST
Nautical Twilight 6:27 AM EST 5:51 PM EST
Astronomical Twilight 5:53 AM EST 6:24 PM EST
Moon 3:06 PM EST (12/14) 4:51 AM EST (12/14)
Length of Visible Light 10h 13m
Length of Day
9h 10m
Waxing Gibbous, 93% of the Moon is Illuminated
Dec 14
Waxing Gibbous
Dec 17
Full
Dec 25
Last Quarter
Jan 1
New
Jan 7
First Quarter

Hourly Weather History & Observations

Time (EST) Temp. Windchill Dew Point Humidity Pressure Visibility Wind Dir Wind Speed Gust Speed Precip Events Conditions
12:53 AM 19.9 °F 11.1 °F 14.0 °F 78% 30.26 in 10.0 mi East 6.9 mph - N/A   Overcast
1:25 AM 19.0 °F 11.1 °F 12.9 °F 77% 30.18 in 10.0 mi East 5.8 mph - N/A   Overcast
1:53 AM 18.0 °F 8.7 °F 12.0 °F 78% 30.27 in 10.0 mi NE 6.9 mph - N/A   Overcast
2:53 AM 17.1 °F 11.7 °F 12.0 °F 81% 30.30 in 10.0 mi ENE 3.5 mph - N/A   Overcast
3:17 AM 17.1 °F 10.0 °F 10.9 °F 77% 30.20 in 1.8 mi East 4.6 mph - 0.00 in Snow Light Snow
3:53 AM 17.1 °F 8.7 °F 12.0 °F 81% 30.27 in 3.0 mi East 5.8 mph - 0.00 in Snow Light Snow
4:06 AM 17.1 °F 8.7 °F 10.9 °F 77% 30.18 in 2.0 mi East 5.8 mph - 0.00 in Snow Light Snow
4:26 AM 17.1 °F 10.0 °F 12.0 °F 81% 30.18 in 1.5 mi ESE 4.6 mph - 0.01 in Snow Light Snow
4:53 AM 17.1 °F 7.6 °F 12.0 °F 81% 30.26 in 1.8 mi ESE 6.9 mph - 0.01 in Snow Light Snow
5:01 AM 17.1 °F 10.0 °F 12.0 °F 81% 30.17 in 2.5 mi ESE 4.6 mph - 0.00 in Snow Light Snow
5:11 AM 17.1 °F 6.6 °F 12.0 °F 81% 30.18 in 2.5 mi ESE 8.1 mph - 0.00 in Snow Light Snow
5:23 AM 17.1 °F 7.6 °F 12.0 °F 81% 30.17 in 3.0 mi East 6.9 mph - 0.00 in Snow Light Snow
5:53 AM 17.1 °F 10.0 °F 12.0 °F 81% 30.26 in 4.0 mi ESE 4.6 mph - 0.00 in Snow Light Snow
6:53 AM 17.1 °F 8.7 °F 12.9 °F 84% 30.27 in 5.0 mi ESE 5.8 mph - 0.00 in Snow Light Snow
7:06 AM 18.0 °F 9.8 °F 12.9 °F 81% 30.18 in 2.5 mi ESE 5.8 mph - 0.00 in Snow Light Snow
7:20 AM 18.0 °F 9.8 °F 12.9 °F 81% 30.18 in 2.0 mi ESE 5.8 mph - 0.01 in Snow Light Snow
7:24 AM 18.0 °F 9.8 °F 12.9 °F 81% 30.18 in 1.8 mi East 5.8 mph - 0.01 in Snow Light Snow
7:34 AM 18.0 °F 9.8 °F 12.9 °F 81% 30.18 in 2.0 mi East 5.8 mph - 0.01 in Snow Light Snow
7:49 AM 17.6 °F 9.3 °F 12.2 °F 79% 30.18 in 1.8 mi ESE 5.8 mph - 0.01 in Snow Light Snow
7:50 AM 18.0 °F 8.7 °F 12.9 °F 81% 30.27 in 1.8 mi ESE 6.9 mph - 0.01 in Snow Light Snow
8:03 AM 18.0 °F 8.7 °F 12.9 °F 81% 30.18 in 0.8 mi ESE 6.9 mph - 0.00 in Snow Light Snow
8:19 AM 18.0 °F 8.7 °F 14.0 °F 84% 30.18 in 0.5 mi ESE 6.9 mph - 0.01 in Fog , Snow Snow
8:44 AM 18.0 °F 7.7 °F 14.0 °F 84% 30.17 in 0.8 mi ESE 8.1 mph - 0.01 in Snow Light Snow
8:53 AM 19.0 °F 8.2 °F 14.0 °F 81% 30.26 in 1.2 mi ESE 9.2 mph - 0.01 in Snow Light Snow
9:11 AM 19.0 °F 8.2 °F 14.0 °F 81% 30.17 in 2.5 mi ESE 9.2 mph - 0.00 in Snow Light Snow
9:21 AM 19.0 °F 6.8 °F 14.0 °F 81% 30.17 in 3.0 mi ESE 11.5 mph - 0.00 in Snow Light Snow
9:37 AM 19.9 °F 8.6 °F 14.0 °F 78% 30.17 in 1.8 mi SE 10.4 mph - 0.00 in Snow Light Snow
9:46 AM 19.9 °F 7.9 °F 14.0 °F 78% 30.16 in 3.0 mi ESE 11.5 mph - 0.00 in Snow Light Snow
9:53 AM 19.9 °F 7.3 °F 14.0 °F 78% 30.25 in 5.0 mi ESE 12.7 mph - 0.00 in Snow Light Snow
10:44 AM 21.0 °F 9.9 °F 15.1 °F 78% 30.14 in 1.8 mi SE 10.4 mph - 0.00 in Snow Light Snow
10:53 AM 21.0 °F 8.6 °F 16.0 °F 81% 30.22 in 1.0 mi SE 12.7 mph - 0.00 in Snow Light Snow
11:05 AM 21.0 °F 9.3 °F 16.0 °F 81% 30.13 in 0.8 mi SE 11.5 mph - 0.01 in Snow Light Snow
11:33 AM 21.9 °F 11.0 °F 16.0 °F 78% 30.10 in 1.0 mi SE 10.4 mph - 0.01 in Snow Light Snow
11:49 AM 21.2 °F 9.5 °F 15.8 °F 80% 30.08 in 0.5 mi SE 11.5 mph - 0.01 in Snow Snow
11:53 AM 21.9 °F 9.8 °F 17.1 °F 82% 30.16 in 0.5 mi SE 12.7 mph - 0.01 in Snow Snow
12:01 PM 21.9 °F 9.8 °F 17.1 °F 82% 30.07 in 0.5 mi ESE 12.7 mph - 0.00 in Snow Snow
12:26 PM 21.9 °F 11.0 °F 17.1 °F 82% 30.05 in 0.5 mi SE 10.4 mph - 0.01 in Snow Snow
12:53 PM 21.9 °F 11.0 °F 17.1 °F 82% 30.12 in 0.5 mi SE 10.4 mph - 0.02 in Snow Snow
1:01 PM 21.9 °F 9.8 °F 17.1 °F 82% 30.02 in 0.5 mi ESE 12.7 mph - 0.00 in Snow Snow
1:35 PM 21.9 °F 9.8 °F 17.1 °F 82% 29.98 in 0.8 mi SE 12.7 mph - 0.01 in Snow Light Snow
1:53 PM 21.9 °F 10.4 °F 18.0 °F 85% 30.06 in 0.8 mi SE 11.5 mph - 0.01 in Snow Light Snow
2:10 PM 23.0 °F 9.6 °F 18.0 °F 81% 29.96 in 0.5 mi SE 16.1 mph 24.2 mph 0.00 in Snow Snow
2:35 PM 23.0 °F 10.1 °F 18.0 °F 81% 29.93 in 0.2 mi SE 15.0 mph 23.0 mph 0.01 in Snow Heavy Snow
2:53 PM 23.0 °F 11.1 °F 18.0 °F 81% 30.01 in 0.5 mi SE 12.7 mph - 0.02 in Snow Snow
3:07 PM 23.0 °F 10.1 °F 18.0 °F 81% 29.91 in 0.8 mi ESE 15.0 mph - 0.00 in Snow Light Snow
3:53 PM 23.0 °F 11.1 °F 19.0 °F 85% 29.98 in 0.5 mi SE 12.7 mph 23.0 mph 0.01 in Fog , Snow Light Snow
4:19 PM 23.0 °F 10.1 °F 19.0 °F 85% 29.88 in 0.2 mi SE 15.0 mph - 0.00 in Fog , Snow Snow
4:33 PM 24.1 °F 11.5 °F 19.0 °F 81% 29.87 in 0.2 mi SE 15.0 mph - 0.01 in Snow Heavy Snow
4:50 PM 24.8 °F 12.9 °F 19.4 °F 80% 29.86 in 0.2 mi SE 13.8 mph - 0.02 in Fog , Snow Snow
4:53 PM 24.1 °F 12.0 °F 19.9 °F 84% 29.95 in 0.5 mi SE 13.8 mph - 0.02 in Fog , Snow Snow
5:21 PM 24.1 °F 12.5 °F 19.9 °F 84% 29.85 in 0.8 mi SE 12.7 mph 21.9 mph 0.01 in Snow Light Snow
5:53 PM 24.1 °F 12.5 °F 19.9 °F 84% 29.92 in 0.8 mi SE 12.7 mph 21.9 mph 0.02 in Snow Light Snow
6:21 PM 25.0 °F 12.6 °F 21.0 °F 85% 29.83 in 0.5 mi SSE 15.0 mph 20.7 mph 0.01 in Fog , Snow Snow
6:41 PM 25.0 °F 13.1 °F 21.0 °F 85% 29.81 in 0.2 mi SE 13.8 mph 26.5 mph 0.02 in Fog , Snow Heavy Snow
6:53 PM 25.0 °F 12.6 °F 21.0 °F 85% 29.89 in 0.2 mi SSE 15.0 mph 23.0 mph 0.03 in Fog , Snow Heavy Snow
7:07 PM 25.0 °F 12.6 °F 21.9 °F 88% 29.79 in 0.5 mi SE 15.0 mph - 0.01 in Fog , Snow Snow
7:16 PM 25.0 °F 12.6 °F 21.9 °F 88% 29.79 in 1.0 mi SSE 15.0 mph 26.5 mph 0.01 in Snow Light Snow
7:25 PM 26.1 °F 14.5 °F 21.9 °F 84% 29.79 in 0.8 mi SSE 13.8 mph - 0.01 in Snow Light Snow
7:35 PM 26.1 °F 15.6 °F 21.9 °F 84% 29.78 in 0.8 mi SE 11.5 mph - 0.01 in Snow Light Snow
7:42 PM 26.1 °F 14.5 °F 21.9 °F 84% 29.78 in 1.0 mi SE 13.8 mph - 0.02 in Snow Light Snow
7:53 PM 26.1 °F 14.0 °F 21.9 °F 84% 29.85 in 1.2 mi SE 15.0 mph 23.0 mph 0.02 in Snow Light Snow
8:19 PM 27.0 °F 14.7 °F 21.9 °F 81% 29.76 in 1.8 mi SSE 16.1 mph 25.3 mph 0.00 in Snow Light Snow
8:26 PM 27.0 °F 14.7 °F 21.9 °F 81% 29.75 in 2.0 mi SE 16.1 mph 24.2 mph 0.00 in Snow Light Snow
8:39 PM 27.0 °F 14.3 °F 21.9 °F 81% 29.74 in 3.0 mi SSE 17.3 mph - 0.00 in Snow Light Snow
8:53 PM 27.0 °F 14.7 °F 21.9 °F 81% 29.81 in 2.5 mi SSE 16.1 mph 27.6 mph 0.00 in Snow Light Snow
9:53 PM 26.1 °F 13.6 °F 21.9 °F 84% 29.76 in 2.5 mi SSE 16.1 mph 28.8 mph 0.00 in Snow Light Snow
10:09 PM 26.1 °F 14.5 °F 21.9 °F 84% 29.68 in 1.8 mi SE 13.8 mph - 0.00 in Snow Light Snow
10:22 PM 26.1 °F 14.5 °F 21.9 °F 84% 29.67 in 1.8 mi SSE 13.8 mph 25.3 mph 0.00 in Snow Light Snow
10:35 PM 26.1 °F 14.5 °F 21.9 °F 84% 29.66 in 1.8 mi SE 13.8 mph 23.0 mph 0.00 in Snow Light Snow
10:53 PM 26.1 °F 15.6 °F 21.9 °F 84% 29.72 in 1.0 mi SSE 11.5 mph - 0.01 in Snow Light Snow
11:03 PM 26.1 °F 15.0 °F 21.9 °F 84% 29.64 in 3.0 mi SE 12.7 mph 20.7 mph 0.00 in Snow Light Snow
11:21 PM 26.1 °F 15.6 °F 21.9 °F 84% 29.63 in 3.0 mi SSE 11.5 mph - 0.00 in Snow Light Snow
11:53 PM 26.1 °F 15.6 °F 21.9 °F 84% 29.69 in 3.0 mi SE 11.5 mph 19.6 mph 0.00 in Snow Light Snow